[[{"header":{"parameterUnit":"m.s-1","parameterCategory":2,"la1":30.2992,"la2":30.254,"lo1":-89.0895,"lo2":-89.0443,"dy":0.0025,"dx":0.0025,"nx":19,"ny":19,"refTime":"2026-05-13T09:00:00:Z","depth":"0","parameterNumber":2,"parameterNumberName":"U-component_of_CURRENTS"},"data":[0,0,0,-0.1668,-0.1669,-0.1687,-0.1687,-0.1688,-0.1688,0,0,0,0,0,0,0,0,0,0,0,-0.1648,-0.1648,-0.1668,-0.1669,-0.1687,-0.1687,-0.1688,-0.1688,0,0,0,0,0,0,0,0,0,0,0,-0.1648,-0.1648,-0.1648,-0.1669,-0.1687,-0.1687,-0.1688,-0.1678,0,0,0,0,0,0,0,0,0,0,-0.1662,-0.1661,-0.1648,-0.1648,-0.1669,-0.1687,-0.1687,-0.1677,-0.1678,-0.1677,0,-0.1676,0,-0.1692,-0.1688,-0.1688,0,0,0,-0.166,-0.166,-0.1658,-0.1648,-0.167,-0.1687,-0.1676,-0.1678,-0.1679,-0.1678,-0.1676,-0.1677,-0.1692,-0.1688,-0.1688,-0.1699,-0.1699,0,0,-0.1659,-0.1659,-0.1657,-0.1659,-0.1669,-0.1676,-0.1677,-0.1679,-0.1681,-0.1676,-0.1677,-0.1692,-0.1689,-0.1689,-0.1699,-0.1699,0,0,0,-0.1662,-0.1658,-0.1656,-0.1658,-0.1669,-0.1676,-0.1678,-0.1681,-0.1678,-0.1677,-0.1692,-0.1689,-0.1689,-0.1699,-0.1699,-0.1753,0,0,0,-0.1661,-0.1661,-0.1656,-0.1657,-0.1669,-0.1682,-0.168,-0.1678,-0.1679,-0.1692,-0.1689,-0.1689,-0.1699,-0.1699,-0.1752,-0.178,0,0,0,-0.1648,-0.166,-0.1658,-0.1657,-0.167,-0.1682,-0.168,-0.1678,-0.1689,-0.1688,-0.1689,-0.1699,-0.1699,-0.175,-0.1778,-0.1752,0,0,0,-0.1652,-0.1684,-0.1658,-0.1707,-0.1669,-0.1714,-0.168,-0.1708,-0.1714,-0.1689,-0.1699,-0.1699,-0.175,-0.1776,-0.1751,-0.1732,-0.1735,0,0,-0.1703,-0.169,-0.1723,-0.1702,-0.1755,-0.1711,-0.1755,-0.174,-0.171,-0.1695,-0.1695,-0.1752,-0.1777,-0.1752,-0.1741,-0.1743,0,0,0,-0.1748,-0.1756,-0.1775,-0.1793,-0.1811,-0.1806,-0.1786,-0.1766,-0.1744,-0.1715,-0.174,-0.1754,-0.1736,-0.1722,-0.1724,-0.1633,-0.17,-0.1699,-0.1699,-0.1785,-0.1801,-0.1847,-0.1857,-0.1877,-0.1866,-0.1857,-0.1814,-0.1789,-0.1776,-0.1789,-0.1797,-0.1783,-0.1784,-0.1692,-0.1775,-0.1775,-0.1776,-0.1776,-0.1842,-0.1855,-0.1877,-0.1924,-0.1918,-0.1934,-0.1908,-0.1878,-0.1842,-0.1822,-0.1801,-0.177,-0.179,-0.169,-0.1779,-0.1778,-0.1778,-0.1778,-0.1777,-0.1838,-0.1843,-0.188,-0.193,-0.1955,-0.196,-0.1972,-0.1936,-0.1887,-0.1883,-0.1818,-0.1817,-0.1733,-0.1857,-0.1857,-0.1857,-0.1857,-0.1857,-0.1857,-0.1801,-0.1839,-0.1875,-0.193,-0.196,-0.199,-0.1997,-0.199,-0.1928,-0.1873,-0.1871,-0.1723,-0.182,-0.1822,-0.1857,-0.1857,-0.1857,-0.1857,-0.1857,-0.1732,-0.1781,-0.1825,-0.1867,-0.1945,-0.1912,-0.1999,-0.1968,-0.196,-0.1918,-0.1729,-0.1845,-0.1815,-0.1813,-0.1813,-0.1844,-0.1844,-0.1844,-0.1844,-0.1671,-0.1707,-0.1738,-0.1787,-0.1856,-0.1861,-0.1797,-0.1782,-0.1728,-0.1647,-0.1673,-0.1649,-0.1653,-0.1613,-0.1614,-0.1609,-0.1588,-0.1587,-0.1587,-0.1591,-0.1634,-0.1598,-0.1687,-0.1775,-0.1755,-0.155,-0.1435,-0.1485,-0.1567,-0.155,-0.1561,-0.1517,-0.1532,-0.1461,-0.147,-0.146,0,0]},{"header":{"parameterUnit":"m.s-1","parameterCategory":2,"la1":30.2992,"la2":30.254,"lo1":-89.0895,"lo2":-89.0443,"dy":0.0025,"dx":0.0025,"nx":19,"ny":19,"refTime":"2026-05-13T09:00:00:Z","depth":"0","parameterNumber":3,"parameterNumberName":"V-component_of_CURRENTS"},"data":[0,0,0,-0.0387,-0.0389,-0.0497,-0.0497,-0.0609,-0.061,0,0,0,0,0,0,0,0,0,0,0,-0.0339,-0.0339,-0.0387,-0.0389,-0.0497,-0.0497,-0.0609,-0.061,0,0,0,0,0,0,0,0,0,0,0,-0.0339,-0.0339,-0.034,-0.039,-0.0497,-0.0497,-0.0609,-0.0534,0,0,0,0,0,0,0,0,0,0,-0.0433,-0.0386,-0.0339,-0.034,-0.039,-0.0496,-0.0497,-0.0531,-0.0539,-0.0553,0,-0.0564,0,-0.0594,-0.0617,-0.0617,0,0,0,-0.039,-0.0379,-0.0416,-0.034,-0.0391,-0.0496,-0.0449,-0.0535,-0.0544,-0.0563,-0.0566,-0.057,-0.0596,-0.0617,-0.0618,-0.0636,-0.0635,0,0,-0.0384,-0.0353,-0.041,-0.0422,-0.0412,-0.0445,-0.0452,-0.0541,-0.0542,-0.0566,-0.0574,-0.0598,-0.0618,-0.0619,-0.0636,-0.0636,0,0,0,-0.0367,-0.0349,-0.0384,-0.0416,-0.0441,-0.0448,-0.0456,-0.0538,-0.0552,-0.0575,-0.0599,-0.0619,-0.062,-0.0637,-0.0636,-0.0581,0,0,0,-0.0363,-0.0339,-0.0381,-0.0364,-0.0439,-0.0493,-0.045,-0.0545,-0.0557,-0.0599,-0.0619,-0.0621,-0.0638,-0.0637,-0.0584,-0.0548,0,0,0,-0.0335,-0.0337,-0.0348,-0.0362,-0.0411,-0.0493,-0.0512,-0.0548,-0.0571,-0.0617,-0.0621,-0.0638,-0.0637,-0.0586,-0.0553,-0.052,0,0,0,-0.0302,-0.0311,-0.0347,-0.0363,-0.0409,-0.046,-0.0512,-0.0552,-0.0585,-0.0619,-0.0638,-0.0636,-0.0587,-0.0556,-0.0523,-0.0494,-0.0478,0,0,-0.0296,-0.031,-0.032,-0.0355,-0.0386,-0.0446,-0.0464,-0.0528,-0.0567,-0.0608,-0.0609,-0.0583,-0.0553,-0.0521,-0.0416,-0.0403,0,0,0,-0.0306,-0.0314,-0.0329,-0.0356,-0.0401,-0.042,-0.0488,-0.0508,-0.0538,-0.0583,-0.0571,-0.0553,-0.0535,-0.0523,-0.0512,-0.0476,-0.063,-0.063,-0.063,-0.0268,-0.0294,-0.0311,-0.0344,-0.0362,-0.0405,-0.0414,-0.0448,-0.0505,-0.0493,-0.05,-0.0424,-0.0409,-0.0401,-0.0363,-0.0496,-0.0496,-0.0496,-0.0496,-0.0283,-0.0311,-0.0305,-0.0333,-0.0335,-0.0349,-0.036,-0.0379,-0.038,-0.0432,-0.0418,-0.0454,-0.0386,-0.035,-0.0492,-0.0493,-0.0493,-0.0494,-0.0494,-0.03,-0.0317,-0.0321,-0.0343,-0.0325,-0.0331,-0.0316,-0.0318,-0.0323,-0.0301,-0.031,-0.0311,-0.0288,-0.0307,-0.0307,-0.0307,-0.0306,-0.0306,-0.0306,-0.0339,-0.0339,-0.0369,-0.0365,-0.0367,-0.0348,-0.0304,-0.028,-0.0237,-0.0233,-0.0233,-0.0244,-0.0366,-0.0384,-0.0301,-0.0302,-0.0303,-0.0303,-0.0303,-0.0407,-0.0403,-0.0452,-0.0461,-0.0445,-0.0394,-0.0339,-0.0224,-0.0188,-0.0144,-0.0106,-0.02,-0.0215,-0.0224,-0.0238,-0.0122,-0.0122,-0.0122,-0.0122,-0.0457,-0.0457,-0.0525,-0.0541,-0.0521,-0.0424,-0.0321,-0.0209,-0.0079,-0.0023,-0.0009,-0.0041,-0.005,-0.0058,-0.0071,-0.0083,0.007,0.007,0.007,-0.0512,-0.0529,-0.0576,-0.0576,-0.0547,-0.0433,-0.0296,-0.0175,-0.0013,0.008,0.0042,0.0034,-0.0014,-0.0032,-0.0052,-0.0073,-0.0096,0,0]}],[{"header":{"parameterUnit":"m.s-1","parameterCategory":2,"la1":30.2992,"la2":30.254,"lo1":-89.0895,"lo2":-89.0443,"dy":0.0025,"dx":0.0025,"nx":19,"ny":19,"refTime":"2026-05-13T09:00:00:Z","depth":"2","parameterNumber":2,"parameterNumberName":"U-component_of_CURRENTS"},"data":[0,0,0,-0.1049,-0.105,-0.112,-0.1121,-0.1289,-0.129,0,0,0,0,0,0,0,0,0,0,0,-0.1041,-0.1042,-0.1049,-0.105,-0.112,-0.1121,-0.1288,-0.129,0,0,0,0,0,0,0,0,0,0,0,-0.1041,-0.1042,-0.1043,-0.105,-0.112,-0.1121,-0.1288,-0.1218,0,0,0,0,0,0,0,0,0,0,-0.114,-0.1125,-0.1042,-0.1043,-0.1051,-0.112,-0.1121,-0.1213,-0.1222,-0.1276,0,-0.1295,0,-0.1288,-0.1302,-0.1303,0,0,0,-0.1059,-0.1117,-0.1128,-0.1043,-0.1051,-0.112,-0.1091,-0.1218,-0.1228,-0.1288,-0.1297,-0.1302,-0.1291,-0.1304,-0.1304,-0.1466,-0.1467,0,0,-0.1055,-0.1064,-0.1121,-0.1134,-0.1083,-0.1089,-0.1093,-0.1223,-0.1246,-0.1298,-0.1306,-0.1294,-0.1305,-0.1306,-0.1466,-0.1466,0,0,0,-0.1038,-0.1062,-0.1068,-0.1128,-0.113,-0.1091,-0.1096,-0.1241,-0.124,-0.1307,-0.1296,-0.1306,-0.1308,-0.1465,-0.1466,-0.151,0,0,0,-0.1036,-0.1051,-0.1066,-0.1073,-0.1127,-0.1176,-0.1111,-0.1232,-0.1245,-0.1295,-0.1306,-0.131,-0.1465,-0.1466,-0.1508,-0.1531,0,0,0,-0.1036,-0.105,-0.106,-0.1074,-0.1096,-0.1173,-0.1181,-0.1234,-0.1239,-0.1303,-0.131,-0.1465,-0.1466,-0.1506,-0.1528,-0.1519,0,0,0,-0.104,-0.1128,-0.1061,-0.1145,-0.1096,-0.1173,-0.118,-0.1254,-0.1313,-0.1307,-0.1465,-0.1466,-0.1505,-0.1526,-0.1518,-0.1273,-0.126,0,0,-0.1164,-0.1144,-0.1189,-0.113,-0.1238,-0.1163,-0.126,-0.1333,-0.1343,-0.1429,-0.1432,-0.1508,-0.1527,-0.1519,-0.1329,-0.1314,0,0,0,-0.1234,-0.1262,-0.1289,-0.1316,-0.1334,-0.1348,-0.1365,-0.1379,-0.1447,-0.1378,-0.1516,-0.1527,-0.1519,-0.1369,-0.1358,-0.1471,-0.147,-0.147,-0.147,-0.1351,-0.1352,-0.144,-0.1445,-0.1482,-0.148,-0.1493,-0.1503,-0.1511,-0.1538,-0.1568,-0.1601,-0.1441,-0.143,-0.1571,-0.1571,-0.1572,-0.1572,-0.1572,-0.1476,-0.1495,-0.151,-0.1601,-0.1593,-0.1638,-0.1637,-0.1619,-0.163,-0.1627,-0.1617,-0.143,-0.142,-0.1575,-0.1575,-0.1574,-0.1574,-0.1574,-0.1573,-0.1484,-0.1508,-0.1556,-0.1643,-0.1701,-0.1711,-0.1723,-0.1705,-0.1688,-0.1675,-0.148,-0.1475,-0.161,-0.1664,-0.1664,-0.1664,-0.1665,-0.1665,-0.1665,-0.1459,-0.1523,-0.1581,-0.1676,-0.1716,-0.1753,-0.1761,-0.1736,-0.1606,-0.1509,-0.1505,-0.1631,-0.1628,-0.1615,-0.1666,-0.1666,-0.1666,-0.1665,-0.1665,-0.1425,-0.1471,-0.1554,-0.1607,-0.1684,-0.1583,-0.1647,-0.1441,-0.1455,-0.1317,-0.1387,-0.1393,-0.1348,-0.1353,-0.1332,-0.1308,-0.1308,-0.1307,-0.1307,-0.1375,-0.1411,-0.1485,-0.1522,-0.155,-0.1485,-0.122,-0.1089,-0.1029,-0.0942,-0.0959,-0.0876,-0.0897,-0.0824,-0.0841,-0.081,-0.0649,-0.0648,-0.0647,-0.1311,-0.1367,-0.1355,-0.1421,-0.1444,-0.128,-0.0896,-0.0764,-0.0654,-0.0628,-0.0913,-0.125,-0.1168,-0.1186,-0.1106,-0.1122,-0.1084,0,0]},{"header":{"parameterUnit":"m.s-1","parameterCategory":2,"la1":30.2992,"la2":30.254,"lo1":-89.0895,"lo2":-89.0443,"dy":0.0025,"dx":0.0025,"nx":19,"ny":19,"refTime":"2026-05-13T09:00:00:Z","depth":"2","parameterNumber":3,"parameterNumberName":"V-component_of_CURRENTS"},"data":[0,0,0,-0.0025,-0.0027,-0.0126,-0.0127,-0.033,-0.0331,0,0,0,0,0,0,0,0,0,0,0,-0.0003,-0.0004,-0.0025,-0.0027,-0.0126,-0.0127,-0.0329,-0.0331,0,0,0,0,0,0,0,0,0,0,0,-0.0003,-0.0004,-0.0004,-0.0027,-0.0126,-0.0127,-0.0329,-0.0239,0,0,0,0,0,0,0,0,0,0,-0.0135,-0.0102,-0.0003,-0.0004,-0.0028,-0.0126,-0.0127,-0.0234,-0.0245,-0.03,0,-0.0313,0,-0.0316,-0.0345,-0.0346,0,0,0,-0.0045,-0.0093,-0.011,-0.0005,-0.0028,-0.0126,-0.0087,-0.024,-0.0252,-0.0314,-0.0316,-0.0323,-0.032,-0.0346,-0.0347,-0.0473,-0.0472,0,0,-0.004,-0.0035,-0.0102,-0.0118,-0.0054,-0.0083,-0.009,-0.0247,-0.0266,-0.0317,-0.0327,-0.0323,-0.0348,-0.0349,-0.0473,-0.0472,0,0,0,-0.0012,-0.0031,-0.0044,-0.011,-0.0116,-0.0086,-0.0093,-0.026,-0.0261,-0.0329,-0.0326,-0.0349,-0.0351,-0.0473,-0.0473,-0.0409,0,0,0,-0.0009,-0.0013,-0.0042,-0.0042,-0.0113,-0.018,-0.0103,-0.0251,-0.0268,-0.0325,-0.0349,-0.0353,-0.0473,-0.0473,-0.0411,-0.0385,0,0,0,0.0001,-0.0013,-0.0021,-0.0041,-0.0073,-0.0176,-0.0188,-0.0254,-0.0265,-0.0346,-0.0354,-0.0473,-0.0473,-0.0413,-0.0388,-0.0371,0,0,0,0.0005,-0.0032,-0.0021,-0.0052,-0.0072,-0.0105,-0.0187,-0.0241,-0.0302,-0.035,-0.0473,-0.0473,-0.0414,-0.0391,-0.0373,-0.0279,-0.0262,0,0,-0.004,-0.0038,-0.005,-0.0042,-0.0088,-0.0093,-0.0136,-0.0255,-0.0317,-0.0431,-0.0434,-0.0411,-0.0389,-0.0371,-0.0258,-0.0242,0,0,0,-0.0061,-0.0074,-0.0087,-0.0103,-0.0115,-0.0136,-0.0203,-0.0243,-0.0338,-0.0349,-0.0421,-0.041,-0.0401,-0.0348,-0.0336,-0.0471,-0.0471,-0.0471,-0.0471,-0.0102,-0.0098,-0.0133,-0.0136,-0.0147,-0.017,-0.0186,-0.0249,-0.0317,-0.0341,-0.0366,-0.032,-0.0263,-0.0253,-0.0375,-0.0375,-0.0374,-0.0374,-0.0374,-0.0159,-0.0181,-0.0159,-0.0197,-0.0185,-0.0201,-0.0214,-0.0237,-0.0271,-0.0328,-0.0322,-0.0293,-0.0234,-0.0369,-0.037,-0.0371,-0.0371,-0.0372,-0.0372,-0.0194,-0.0215,-0.0215,-0.0242,-0.0239,-0.023,-0.0216,-0.0218,-0.0234,-0.0207,-0.0184,-0.0184,-0.0281,-0.022,-0.022,-0.0219,-0.0219,-0.0219,-0.0219,-0.0249,-0.0254,-0.0291,-0.0297,-0.0298,-0.0276,-0.0226,-0.0193,-0.0131,-0.0111,-0.0111,-0.0269,-0.0274,-0.0274,-0.0216,-0.0216,-0.0217,-0.0217,-0.0217,-0.0341,-0.0327,-0.0388,-0.0398,-0.0372,-0.0306,-0.0242,-0.008,-0.0043,0.0023,-0.0054,-0.0059,-0.0074,-0.0084,-0.008,0.0024,0.0024,0.0024,0.0024,-0.0397,-0.0395,-0.0464,-0.0473,-0.0432,-0.0325,-0.0186,-0.0118,-0.0029,-0.0036,-0.0035,-0.0056,-0.0061,-0.008,-0.009,-0.0089,0.0012,0.0012,0.0011,-0.0462,-0.0474,-0.0523,-0.0508,-0.045,-0.0308,-0.0173,-0.0112,-0.0042,-0.0002,-0.0172,0.0049,0.0026,0.0013,-0.0014,-0.0031,-0.0028,0,0]}],[{"header":{"parameterUnit":"m.s-1","parameterCategory":2,"la1":30.2992,"la2":30.254,"lo1":-89.0895,"lo2":-89.0443,"dy":0.0025,"dx":0.0025,"nx":19,"ny":19,"refTime":"2026-05-13T09:00:00:Z","depth":"4","parameterNumber":2,"parameterNumberName":"U-component_of_CURRENTS"},"data":[0,0,0,-0.0156,-0.0156,-0.0276,-0.0277,-0.0641,-0.0644,0,0,0,0,0,0,0,0,0,0,0,-0.0121,-0.0121,-0.0156,-0.0156,-0.0275,-0.0277,-0.064,-0.0644,0,0,0,0,0,0,0,0,0,0,0,-0.0121,-0.0121,-0.012,-0.0156,-0.0275,-0.0277,-0.064,-0.0512,0,0,0,0,0,0,0,0,0,0,-0.0375,-0.03,-0.0121,-0.012,-0.0157,-0.0275,-0.0277,-0.0504,-0.052,-0.0629,0,-0.0604,0,-0.0609,-0.0668,-0.0669,0,0,0,-0.0216,-0.0286,-0.0297,-0.012,-0.0157,-0.0275,-0.0239,-0.0511,-0.053,-0.065,-0.0609,-0.0621,-0.0615,-0.067,-0.0672,-0.0959,-0.096,0,0,-0.021,-0.0184,-0.0283,-0.0306,-0.0138,-0.0234,-0.0242,-0.0521,-0.0537,-0.061,-0.0629,-0.0621,-0.0673,-0.0675,-0.0959,-0.0959,0,0,0,-0.015,-0.0179,-0.0181,-0.0293,-0.0284,-0.0236,-0.0245,-0.0525,-0.0517,-0.0633,-0.0625,-0.0675,-0.0679,-0.0958,-0.0959,-0.095,0,0,0,-0.0149,-0.014,-0.0177,-0.017,-0.0275,-0.0378,-0.0243,-0.0498,-0.0529,-0.0623,-0.0675,-0.0682,-0.0958,-0.0959,-0.0949,-0.09,0,0,0,-0.0124,-0.0139,-0.013,-0.0166,-0.0187,-0.0372,-0.0383,-0.0505,-0.0523,-0.0669,-0.0683,-0.0957,-0.0958,-0.0948,-0.09,-0.0827,0,0,0,-0.0129,-0.011,-0.0129,-0.0124,-0.0185,-0.0251,-0.0381,-0.0519,-0.0642,-0.0676,-0.0958,-0.0959,-0.0948,-0.09,-0.0829,-0.0646,0,0,0,-0.011,-0.0107,-0.0106,-0.0125,-0.015,-0.0242,-0.0347,-0.0586,-0.0698,-0.0891,-0.0897,-0.0949,-0.09,-0.0828,-0.072,0,0,0,0,-0.0105,-0.0092,-0.0107,-0.0123,-0.018,-0.0282,-0.0466,-0.0578,-0.0813,-0.0759,-0.0976,-0.0945,-0.0899,-0.08,-0.0965,-0.0965,-0.0964,-0.0964,-0.0964,-0.0071,-0.009,-0.0091,-0.0126,-0.0183,-0.0357,-0.0473,-0.0663,-0.0799,-0.0912,-0.096,-0.0924,-0.0826,-0.1009,-0.1009,-0.1009,-0.1009,-0.1009,-0.1009,-0.0039,-0.0034,-0.0075,-0.0089,-0.0191,-0.0313,-0.0551,-0.0691,-0.0856,-0.0969,-0.0926,-0.0828,-0.1009,-0.1009,-0.1009,-0.1009,-0.1009,-0.1009,-0.1009,-0.0014,-0.001,-0.0021,-0.0053,-0.0157,-0.0337,-0.0434,-0.0667,-0.0832,-0.0839,-0.0718,-0.0885,-0.0855,-0.0837,-0.0837,-0.0836,-0.0836,-0.0835,-0.0835,0.0011,0.0011,0.0005,-0.0027,-0.0078,-0.0201,-0.0404,-0.0446,-0.0629,-0.0649,-0.0834,-0.0864,-0.0869,-0.0844,-0.0827,-0.0829,-0.083,-0.083,-0.0831,0.0028,0.0033,0.0042,0.0023,-0.0045,-0.0089,-0.0224,-0.0245,-0.0248,-0.0236,-0.0524,-0.0542,-0.0502,-0.0516,-0.0477,-0.035,-0.0347,-0.0345,0,0.0036,0.004,0.0053,0.0036,0.0023,-0.0049,0.0009,-0.0002,-0.0152,-0.0214,-0.0272,-0.0604,-0.0616,-0.0579,-0.0586,-0.0543,0,0,0,0.0023,0.0043,0.0043,0.0046,0.0026,0.0018,0.0013,0.0023,-0.0173,-0.0009,-0.0281,-0.0298,-0.0441,-0.0804,-0.0783,-0.079,-0.0747,0,0]},{"header":{"parameterUnit":"m.s-1","parameterCategory":2,"la1":30.2992,"la2":30.254,"lo1":-89.0895,"lo2":-89.0443,"dy":0.0025,"dx":0.0025,"nx":19,"ny":19,"refTime":"2026-05-13T09:00:00:Z","depth":"4","parameterNumber":3,"parameterNumberName":"V-component_of_CURRENTS"},"data":[0,0,0,-0.0263,-0.0265,-0.0356,-0.0356,-0.0338,-0.0338,0,0,0,0,0,0,0,0,0,0,0,-0.0222,-0.0223,-0.0262,-0.0265,-0.0356,-0.0356,-0.0338,-0.0338,0,0,0,0,0,0,0,0,0,0,0,-0.0222,-0.0223,-0.0224,-0.0266,-0.0356,-0.0356,-0.0338,-0.03,0,0,0,0,0,0,0,0,0,0,-0.0227,-0.0216,-0.0223,-0.0224,-0.0266,-0.0356,-0.0356,-0.0299,-0.0302,-0.0263,0,-0.0287,0,-0.0319,-0.0335,-0.0334,0,0,0,-0.0251,-0.0214,-0.0241,-0.0224,-0.0267,-0.0356,-0.0311,-0.0302,-0.0305,-0.0266,-0.0287,-0.0288,-0.0319,-0.0334,-0.0334,-0.0316,-0.0316,0,0,-0.0246,-0.0231,-0.0239,-0.0243,-0.0301,-0.0308,-0.0314,-0.0305,-0.0307,-0.0287,-0.0288,-0.0318,-0.0334,-0.0334,-0.0316,-0.0316,0,0,0,-0.0241,-0.0228,-0.0257,-0.0242,-0.0274,-0.0311,-0.0318,-0.0307,-0.0319,-0.0288,-0.0318,-0.0334,-0.0333,-0.0316,-0.0316,-0.0323,0,0,0,-0.0237,-0.0226,-0.0255,-0.0246,-0.0275,-0.0312,-0.032,-0.0319,-0.032,-0.0318,-0.0334,-0.0333,-0.0316,-0.0316,-0.0323,-0.0378,0,0,0,-0.0216,-0.0224,-0.0239,-0.0245,-0.0293,-0.0313,-0.0324,-0.0321,-0.0338,-0.0334,-0.0333,-0.0316,-0.0316,-0.0322,-0.0375,-0.0372,0,0,0,-0.0191,-0.0243,-0.0238,-0.0309,-0.0292,-0.0387,-0.0325,-0.0366,-0.037,-0.0334,-0.0316,-0.0316,-0.0322,-0.0373,-0.0371,-0.0323,0,0,0,-0.0247,-0.0249,-0.0295,-0.0294,-0.0394,-0.0373,-0.0463,-0.0424,-0.0354,-0.0306,-0.0307,-0.0323,-0.0375,-0.0371,-0.0343,0,0,0,0,-0.0308,-0.0332,-0.0367,-0.0419,-0.0475,-0.0507,-0.0498,-0.0462,-0.0375,-0.0362,-0.0327,-0.0362,-0.0358,-0.0327,-0.0318,-0.0318,-0.0318,-0.0318,-0.0317,-0.0338,-0.0379,-0.045,-0.0501,-0.0552,-0.0595,-0.06,-0.0535,-0.0453,-0.0391,-0.0368,-0.0381,-0.0347,-0.0342,-0.0342,-0.0342,-0.0342,-0.0342,-0.0342,-0.0401,-0.0444,-0.0481,-0.0568,-0.061,-0.0674,-0.0648,-0.0587,-0.0493,-0.0408,-0.0401,-0.0339,-0.0343,-0.0343,-0.0342,-0.0342,-0.0342,-0.0342,-0.0342,-0.0411,-0.0438,-0.0487,-0.0567,-0.0642,-0.0692,-0.0675,-0.0625,-0.052,-0.0492,-0.0397,-0.0401,-0.0398,-0.0427,-0.0427,-0.0427,-0.0428,-0.0428,-0.0428,-0.0404,-0.0446,-0.0494,-0.057,-0.0609,-0.0647,-0.0654,-0.0612,-0.0539,-0.0445,-0.0463,-0.0411,-0.0408,-0.0404,-0.0431,-0.0431,-0.043,-0.043,-0.043,-0.0428,-0.0442,-0.0486,-0.0523,-0.0582,-0.0587,-0.0606,-0.0565,-0.0503,-0.0456,-0.042,-0.042,-0.0421,-0.0419,-0.0415,-0.0446,-0.0446,-0.0445,0,-0.0435,-0.0446,-0.0498,-0.0516,-0.0517,-0.0555,-0.0472,-0.046,-0.045,-0.0439,-0.0485,-0.0447,-0.0444,-0.0447,-0.0444,-0.0441,0,0,0,-0.0442,-0.0458,-0.0484,-0.0513,-0.051,-0.0467,-0.0457,-0.0441,-0.0447,-0.0425,-0.0433,-0.0437,-0.0431,-0.0441,-0.0443,-0.044,-0.0435,0,0]}]]